When you browse on this site, cookies collect data to enhance your experience and personalize the content and advertising you see.
Visit our Privacy Policy to learn more. By continuing to use the site, you agree to this use of cookies and data.
  • In Österreich
  • Länderverzeichnis
  • Für 7 Tage
  • Wassertemperatur
  • Wetterkarte
  • News
  • Widgets
  • user-avatar
    Anmelden

    Stündliche Wetter Cuautepec de Hinojosa

    Heute, 23 August, Freitag

    Zeit Temperatur Niederschläge Wind Luftdruck Luftfeuchtigkeit
    00:00 +14°C° 0.1 mm 1 m/S 581 mmHg 90%
    01:00 +14°C° 0.1 mm 1 m/S 580 mmHg 90%
    02:00 +14°C° 0.1 mm 1 m/S 580 mmHg 91%
    03:00 +13°C° 0 mm 1 m/S 580 mmHg 91%
    04:00 +13°C° 0 mm 1 m/S 580 mmHg 91%
    05:00 +13°C° 0 mm 1 m/S 580 mmHg 91%
    06:00 +15°C° 0 mm 1 m/S 581 mmHg 85%
    07:00 +18°C° 0 mm 1 m/S 583 mmHg 78%
    08:00 +18°C° 0 mm 0 m/S 584 mmHg 71%
    09:00 +21°C° 0.8 mm 1 m/S 584 mmHg 70%
    10:00 +21°C° 0.8 mm 2 m/S 584 mmHg 68%
    11:00 +23°C° 0.8 mm 2 m/S 584 mmHg 67%
    12:00 +21°C° 2 mm 2 m/S 583 mmHg 73%
    13:00 +20°C° 2 mm 2 m/S 582 mmHg 79%
    14:00 +19°C° 2 mm 2 m/S 581 mmHg 85%
    15:00 +18°C° 1.9 mm 2 m/S 581 mmHg 88%
    16:00 +17°C° 1.9 mm 2 m/S 580 mmHg 90%
    17:00 +17°C° 1.9 mm 2 m/S 580 mmHg 93%
    18:00 +16°C° 0.7 mm 2 m/S 580 mmHg 92%
    19:00 +15°C° 0.7 mm 2 m/S 581 mmHg 92%
    20:00 +15°C° 0.7 mm 2 m/S 581 mmHg 92%
    21:00 +14°C° 0 mm 2 m/S 581 mmHg 92%
    22:00 +14°C° 0 mm 2 m/S 581 mmHg 92%
    23:00 +13°C° 0 mm 2 m/S 580 mmHg 92%

    Morgen, 24 August, Samstag

    Zeit Temperatur Niederschläge Wind Luftdruck Luftfeuchtigkeit
    00:00 +14°C° 0 mm 2 m/S 580 mmHg 90%
    01:00 +14°C° 0 mm 2 m/S 580 mmHg 88%
    02:00 +14°C° 0 mm 1 m/S 580 mmHg 87%
    03:00 +14°C° 0 mm 1 m/S 580 mmHg 86%
    04:00 +14°C° 0 mm 1 m/S 580 mmHg 84%
    05:00 +15°C° 0 mm 1 m/S 581 mmHg 83%
    06:00 +16°C° 0 mm 1 m/S 582 mmHg 78%
    07:00 +19°C° 0 mm 1 m/S 583 mmHg 73%
    08:00 +21°C° 0 mm 1 m/S 584 mmHg 68%
    09:00 +22°C° 0.2 mm 1 m/S 584 mmHg 62%
    10:00 +23°C° 0.2 mm 1 m/S 585 mmHg 57%
    11:00 +25°C° 0.2 mm 1 m/S 585 mmHg 52%
    12:00 +24°C° 1.6 mm 1 m/S 584 mmHg 59%
    13:00 +23°C° 1.6 mm 2 m/S 583 mmHg 65%
    14:00 +21°C° 1.6 mm 2 m/S 583 mmHg 71%
    15:00 +21°C° 1.7 mm 2 m/S 582 mmHg 76%
    16:00 +21°C° 1.7 mm 1 m/S 582 mmHg 81%
    17:00 +20°C° 1.7 mm 1 m/S 581 mmHg 86%
    18:00 +19°C° 0.5 mm 1 m/S 581 mmHg 86%
    19:00 +18°C° 0.5 mm 1 m/S 581 mmHg 85%
    20:00 +16°C° 0.5 mm 1 m/S 582 mmHg 85%
    21:00 +16°C° 0 mm 1 m/S 581 mmHg 84%
    22:00 +16°C° 0 mm 1 m/S 581 mmHg 83%
    23:00 +15°C° 0 mm 1 m/S 581 mmHg 83%

    übermorgen, 25 August, Sonntag

    Zeit Temperatur Niederschläge Wind Luftdruck Luftfeuchtigkeit
    00:00 +15°C° 0 mm 1 m/S 581 mmHg 83%
    01:00 +14°C° 0 mm 1 m/S 580 mmHg 84%
    02:00 +14°C° 0 mm 1 m/S 579 mmHg 85%
    03:00 +14°C° 0 mm 1 m/S 580 mmHg 85%
    04:00 +14°C° 0 mm 1 m/S 580 mmHg 85%
    05:00 +14°C° 0 mm 1 m/S 580 mmHg 85%
    06:00 +16°C° 0 mm 1 m/S 581 mmHg 79%
    07:00 +19°C° 0 mm 1 m/S 582 mmHg 72%
    08:00 +22°C° 0 mm 1 m/S 584 mmHg 66%
    09:00 +23°C° 0.3 mm 1 m/S 584 mmHg 62%
    10:00 +24°C° 0.3 mm 1 m/S 584 mmHg 59%
    11:00 +25°C° 0.3 mm 2 m/S 584 mmHg 56%
    12:00 +24°C° 2.2 mm 2 m/S 583 mmHg 63%
    13:00 +23°C° 2.2 mm 2 m/S 582 mmHg 70%
    14:00 +21°C° 2.2 mm 2 m/S 581 mmHg 77%
    15:00 +21°C° 1.3 mm 2 m/S 581 mmHg 81%
    16:00 +21°C° 1.3 mm 1 m/S 581 mmHg 84%
    17:00 +20°C° 1.3 mm 1 m/S 580 mmHg 87%
    18:00 +19°C° 0.4 mm 1 m/S 580 mmHg 88%
    19:00 +18°C° 0.4 mm 1 m/S 580 mmHg 89%
    20:00 +16°C° 0.4 mm 1 m/S 580 mmHg 89%
    21:00 +15°C° 0.1 mm 1 m/S 580 mmHg 88%
    22:00 +15°C° 0.1 mm 1 m/S 580 mmHg 87%
    23:00 +15°C° 0.1 mm 1 m/S 580 mmHg 85%

    26 August, Montag

    Zeit Temperatur Niederschläge Wind Luftdruck Luftfeuchtigkeit
    00:00 +15°C° 0.1 mm 1 m/S 580 mmHg 85%
    01:00 +15°C° 0.1 mm 1 m/S 579 mmHg 86%
    02:00 +15°C° 0.1 mm 2 m/S 579 mmHg 86%
    03:00 +14°C° 0 mm 1 m/S 579 mmHg 86%
    04:00 +14°C° 0 mm 1 m/S 579 mmHg 85%
    05:00 +14°C° 0 mm 1 m/S 579 mmHg 85%
    06:00 +16°C° 0 mm 1 m/S 580 mmHg 79%
    07:00 +19°C° 0 mm 1 m/S 582 mmHg 73%
    08:00 +19°C° 0 mm 0 m/S 583 mmHg 66%
    09:00 +22°C° 0.5 mm 1 m/S 583 mmHg 64%
    10:00 +23°C° 0.5 mm 1 m/S 583 mmHg 62%
    11:00 +24°C° 0.5 mm 1 m/S 583 mmHg 59%
    12:00 +24°C° 0.8 mm 2 m/S 582 mmHg 63%
    13:00 +23°C° 0.8 mm 2 m/S 582 mmHg 67%
    14:00 +22°C° 0.8 mm 3 m/S 581 mmHg 70%
    15:00 +21°C° 0.6 mm 2 m/S 580 mmHg 76%
    16:00 +20°C° 0.6 mm 2 m/S 580 mmHg 81%
    17:00 +19°C° 0.6 mm 2 m/S 580 mmHg 86%
    18:00 +17°C° 0.3 mm 2 m/S 580 mmHg 88%
    19:00 +16°C° 0.3 mm 2 m/S 580 mmHg 91%
    20:00 +15°C° 0.3 mm 1 m/S 580 mmHg 93%
    21:00 +15°C° 0.1 mm 1 m/S 580 mmHg 91%
    22:00 +14°C° 0.1 mm 1 m/S 580 mmHg 88%
    23:00 +14°C° 0.1 mm 1 m/S 580 mmHg 86%

    27 August, Dienstag

    Zeit Temperatur Niederschläge Wind Luftdruck Luftfeuchtigkeit
    00:00 +14°C° 0 mm 1 m/S 579 mmHg 85%
    01:00 +14°C° 0 mm 1 m/S 579 mmHg 83%
    02:00 +14°C° 0 mm 1 m/S 579 mmHg 82%
    03:00 +13°C° 0 mm 1 m/S 579 mmHg 81%
    04:00 +12°C° 0 mm 0 m/S 579 mmHg 81%
    05:00 +12°C° 0 mm 0 m/S 579 mmHg 80%
    06:00 +14°C° 0 mm 0 m/S 580 mmHg 75%
    07:00 +16°C° 0 mm 0 m/S 582 mmHg 70%
    08:00 +18°C° 0 mm 0 m/S 583 mmHg 65%
    09:00 +21°C° 0.1 mm 1 m/S 583 mmHg 62%
    10:00 +22°C° 0.1 mm 1 m/S 583 mmHg 59%
    11:00 +24°C° 0.1 mm 2 m/S 584 mmHg 56%
    12:00 +23°C° 1 mm 2 m/S 583 mmHg 63%
    13:00 +21°C° 1 mm 2 m/S 582 mmHg 69%
    14:00 +20°C° 1 mm 2 m/S 581 mmHg 76%
    15:00 +20°C° 0.9 mm 2 m/S 581 mmHg 80%
    16:00 +19°C° 0.9 mm 2 m/S 581 mmHg 84%
    17:00 +18°C° 0.9 mm 2 m/S 580 mmHg 87%
    18:00 +17°C° 0.6 mm 2 m/S 580 mmHg 90%
    19:00 +16°C° 0.6 mm 1 m/S 581 mmHg 93%
    20:00 +15°C° 0.6 mm 1 m/S 581 mmHg 96%
    21:00 +15°C° 0.9 mm 1 m/S 581 mmHg 95%
    22:00 +15°C° 0.9 mm 1 m/S 581 mmHg 94%
    23:00 +15°C° 0.9 mm 1 m/S 581 mmHg 92%

    28 August, Mittwoch

    Zeit Temperatur Niederschläge Wind Luftdruck Luftfeuchtigkeit
    00:00 +14°C° 0.6 mm 1 m/S 581 mmHg 92%
    01:00 +14°C° 0.6 mm 1 m/S 581 mmHg 91%
    02:00 +14°C° 0.6 mm 1 m/S 581 mmHg 91%
    03:00 +14°C° 0.1 mm 1 m/S 581 mmHg 90%
    04:00 +14°C° 0.1 mm 1 m/S 581 mmHg 89%
    05:00 +14°C° 0.1 mm 1 m/S 581 mmHg 88%
    06:00 +15°C° 0 mm 1 m/S 582 mmHg 83%
    07:00 +16°C° 0 mm 0 m/S 583 mmHg 77%
    08:00 +18°C° 0 mm 0 m/S 584 mmHg 71%
    09:00 +21°C° 0.1 mm 1 m/S 584 mmHg 67%
    10:00 +21°C° 0.1 mm 2 m/S 584 mmHg 64%
    11:00 +22°C° 0.1 mm 3 m/S 585 mmHg 60%
    12:00 +22°C° 0.5 mm 3 m/S 584 mmHg 63%
    13:00 +21°C° 0.5 mm 4 m/S 583 mmHg 67%
    14:00 +21°C° 0.5 mm 4 m/S 582 mmHg 70%
    15:00 +20°C° 0.3 mm 3 m/S 582 mmHg 75%
    16:00 +18°C° 0.3 mm 3 m/S 582 mmHg 80%
    17:00 +17°C° 0.3 mm 2 m/S 581 mmHg 85%
    18:00 +16°C° 0 mm 2 m/S 581 mmHg 89%
    19:00 +15°C° 0 mm 1 m/S 581 mmHg 93%
    20:00 +14°C° 0 mm 1 m/S 581 mmHg 97%
    21:00 +14°C° 0 mm 1 m/S 581 mmHg 96%
    22:00 +13°C° 0 mm 1 m/S 581 mmHg 96%
    23:00 +13°C° 0 mm 1 m/S 582 mmHg 95%
    Mehr zeigen